Regional Weather Roundup
Issued by NWS

Home | Current Version | Previous Version | Graphics & Text | Print | Product List | Glossary On
Versions: 1 2 3 4 5 6 7 8 9 10 11 12 13 14 15 16 17 18 19 20 21 22 23 24 25 26 27 28 29 30 31 32 33 34 35 36 37 38 39 40 41 42 43 44 45 46 47 48 49 50
000
ASUS45 KSLC 290510
RWRUT

UTAH REGIONAL WEATHER ROUNDUP
NATIONAL WEATHER SERVICE SALT LAKE CITY UT
1100 PM MDT THU JUL 28 2016

UTZ001>011-023>025-290600-

NORTHERN UTAH

CITY           SKY/WX    TMP DP  RH WIND       PRES   REMARKS
BRIGHAM CITY     N/A     79  32  17 CALM      30.04F
HILL AFB       CLEAR     80  38  21 SE9       30.08S
LOGAN          CLEAR     74  47  38 SW5       30.07R
OGDEN          CLEAR     82  42  24 SE5       30.05R
PROVO AIRPORT  CLEAR     73  46  38 CALM      30.05S
SALT LAKE CITY CLEAR     87  41  19 CALM      30.03R
VERNAL         CLEAR     78  31  17 N12       30.10R
WENDOVER       CLEAR     86  36  16 NE7       30.04R
HEBER CITY     CLEAR     63  41  45 SW3       30.15R

$$

UTZ012>022-026-027-290600-

SOUTHERN/CENTRAL UTAH

CITY           SKY/WX    TMP DP  RH WIND       PRES   REMARKS
BLANDING       CLOUDY    80  29  15 NW6       30.20R
BRYCE CANYON   MOCLDY    69  36  29 W7        30.36S
CEDAR CITY     CLEAR     75  41  29 W5        30.17R
DELTA          PTCLDY    81  30  16 NE7       30.04S
MILFORD        PTCLDY    83  32  16 SW10      30.08R
MOAB/CYNLANDS  PTCLDY    87  27  11 CALM      29.99R
PRICE          CLEAR     77  26  15 N7        30.17R
ST GEORGE      CLEAR     99  39  12 SW5       29.91S HX  94

$$

REGIONAL REPORTS     COLORADO/ARIZONA

CITY           SKY/WX    TMP DP  RH WIND       PRES   REMARKS
CRAIG, CO      CLEAR     65  36  34 CALM      30.17R
GRAND JUNCTION CLEAR     78  29  16 CALM      30.02R
RIFLE          CLOUDY    72  35  25 S3        30.10R
MONTROSE       PTCLDY    76  37  24 SE9       30.14R
CORTEZ         CLEAR     72  39  30 NE8       30.15R
PAGE, AZ       PTCLDY    93  38  14 CALM      30.00R
GRAND CANYON   PTCLDY    65  50  58 CALM      30.28R
KINGMAN        PTCLDY    87  48  25 W7        29.98F
FLAGSTAFF      MOCLDY    72  41  32 W5        30.32R

$$

REGIONAL REPORTS    NEVADA/IDAHO/WYOMING

CITY           SKY/WX    TMP DP  RH WIND       PRES   REMARKS
LAS VEGAS, NV  MOCLDY   103  43  13 SW7       29.86R HX  98
ELY            MOCLDY    80  30  16 S10       30.21R
ELKO           CLEAR     79  34  19 SE7       30.10R
POCATELLO, ID  CLEAR     81  34  18 S12       30.04S
BURLEY         CLEAR     68  49  50 SW10      30.02S
EVANSTON, WY   CLEAR     73  26  17 NE7       30.30R
ROCK SPRINGS   CLEAR     69  41  36 NE17G26   30.27R
KEMMERER         N/A    N/A N/A N/A N8        30.31S

$$



USA.gov is the U.S. government's official web portal to all federal, state and local government web resources and services.